Location: Nantong Television Tower
(32.0188°N, 120.8512°E)
Time: 03:59:58
(UTC+08:00)

Vanguard 3 - Visible Passes

Search period start: 16 December 2017 00:00
Search period end: 26 December 2017 00:00
Orbit: 509 x 3263 km, 33.3° (Epoch: 14 December)

Date Brightness Start Highest point End Pass type
(mag) Time Alt. Az. Time Alt. Az. Time Alt. Az.
16 Dec 9.3 17:21:02 10° WSW 17:24:32 23° SSW 17:29:20 10° SSE visible
20 Dec 11.6 05:48:07 10° S 05:52:36 12° SSE 05:56:28 10° SE visible
22 Dec 11.4 05:28:05 10° S 05:36:49 17° SSE 05:43:32 10° ESE visible
23 Dec 11.7 04:19:29 10° SSE 04:21:10 10° SE 04:22:46 10° SE visible
23 Dec 10.7 06:23:41 10° SSW 06:36:14 32° SSE 06:44:19 10° E visible
24 Dec 11.2 05:09:13 10° SSW 05:20:52 23° SSE 05:29:23 10° ESE visible
25 Dec 11.6 03:56:58 10° S 04:05:08 15° SE 04:12:04 10° ESE visible
25 Dec 10.5 06:05:49 10° SSW 06:20:17 39° SSE 06:29:23 10° E visible
